Weather History for Sulphur, LA

Change the Weather History Date:

Monday, May 12, 2014

  Actual Average (KLCH) Record (KLCH)
Temperature  
Mean Temperature 80 °F 75 °F  
Max Temperature 84 °F 84 °F 92 °F (1916)
Min Temperature 77 °F 66 °F 46 °F (1924)
Degree Days  
Heating Degree Days 0 0  
Month to date heating degree days 0  
Since 1 July heating degree days 1489  
Cooling Degree Days 16 10  
Month to date cooling degree days 102  
Year to date cooling degree days 310  
Growing Degree Days 30 (Base 50)    
Moisture  
Dew Point 74 °F    
Average Humidity 83    
Maximum Humidity 91    
Minimum Humidity 72    
Precipitation  
Precipitation 0.00 in 0.16 in 1.94 in (1954)
Month to date precipitation 1.80  
Year to date precipitation 17.48  
Snow  
Snow 0.00 in 0.00 in 0.00 in ()
Month to date snowfall 0.0  
Since 1 July snowfall 0.1  
Snow Depth -    
Sea Level Pressure  
Sea Level Pressure 29.95 in    
Wind  
Wind Speed 18 mph (SE)    
Max Wind Speed 25 mph    
Max Gust Speed 33 mph    
Visibility 9 miles    
Events Thunderstorm    
T = Trace of Precipitation, MM = Missing Value Source: NWS Daily Summary

Daily Weather History Graph

Daily Weather History Graph

Search for Another Location

Airport:

Trip Planner

Search our weather history database for the weather conditions in past years. The results will help you decide how hot, cold, wet, or windy it might be!

Date:

Astronomy

May. 12, 2014 Rise Set
Actual Time 6:21 AM CDT 7:58 PM CDT
Civil Twilight 5:55 AM CDT 8:24 PM CDT
Nautical Twilight 5:24 AM CDT 8:55 PM CDT
Astronomical Twilight 4:51 AM CDT 9:28 PM CDT
Moon 6:05 PM CDT (5/12) 4:50 AM CDT (5/12)
Length of Visible Light 14h 28m
Length of Day
13h 36m
Waxing Gibbous, 95% of the Moon is Illuminated
May 12
Waxing Gibbous
May 14
Full
May 21
Last Quarter
May 28
New
Jun 5
First Quarter

Hourly Weather History & Observations

Time (CDT) Temp. Heat Index Dew Point Humidity Pressure Visibility Wind Dir Wind Speed Gust Speed Precip Events Conditions
12:15 AM 78.8 °F - 73.9 °F 85% 29.92 in 10.0 mi SE 19.6 mph 28.8 mph N/A   Overcast
12:35 AM 78.4 °F - 74.3 °F 87% 29.92 in 10.0 mi SE 19.6 mph 26.5 mph N/A   Overcast
12:55 AM 78.4 °F - 74.3 °F 87% 29.91 in 10.0 mi SE 18.4 mph 21.9 mph N/A   Overcast
1:15 AM 78.3 °F - 74.3 °F 88% 29.91 in 10.0 mi SSE 18.4 mph 26.5 mph N/A   Overcast
1:35 AM 77.9 °F - 74.3 °F 89% 29.90 in 10.0 mi SE 18.4 mph 24.2 mph N/A   Overcast
1:55 AM 77.9 °F - 74.7 °F 90% 29.89 in 10.0 mi SSE 19.6 mph 26.5 mph N/A   Overcast
2:15 AM 77.9 °F - 74.8 °F 90% 29.89 in 10.0 mi SSE 16.1 mph 26.5 mph N/A   Overcast
2:35 AM 78.1 °F - 75.2 °F 91% 29.89 in 10.0 mi SSE 19.6 mph 26.5 mph N/A   Overcast
2:55 AM 78.1 °F - 74.8 °F 90% 29.89 in 10.0 mi SSE 18.4 mph 27.6 mph N/A   Overcast
3:15 AM 77.5 °F - 74.8 °F 91% 29.88 in 10.0 mi SSE 19.6 mph 25.3 mph N/A   Mostly Cloudy
3:35 AM 77.5 °F - 74.7 °F 91% 29.88 in 10.0 mi SSE 20.7 mph 26.5 mph N/A   Overcast
3:55 AM 77.5 °F - 74.7 °F 91% 29.88 in 10.0 mi SSE 19.6 mph 26.5 mph N/A   Overcast
4:15 AM 77.4 °F - 74.7 °F 91% 29.88 in 10.0 mi SSE 20.7 mph 27.6 mph N/A   Overcast
4:35 AM 77.4 °F - 74.3 °F 90% 29.88 in 10.0 mi SSE 20.7 mph 27.6 mph N/A   Scattered Clouds
4:55 AM 77.2 °F - 74.3 °F 91% 29.89 in 10.0 mi SSE 17.3 mph 23.0 mph N/A   Scattered Clouds
5:35 AM 77.9 °F - 74.3 °F 89% 29.91 in 10.0 mi SSE 15.0 mph 21.9 mph N/A   Overcast
5:55 AM 77.9 °F - 74.5 °F 89% 29.91 in 10.0 mi SSE 12.7 mph 19.6 mph N/A   Overcast
6:15 AM 77.9 °F - 74.5 °F 89% 29.92 in 10.0 mi SSE 17.3 mph 20.7 mph N/A   Overcast
6:35 AM 77.9 °F - 74.5 °F 89% 29.92 in 10.0 mi SSE 18.4 mph 21.9 mph N/A   Overcast
6:55 AM 78.1 °F - 74.5 °F 89% 29.93 in 7.0 mi SSE 15.0 mph 21.9 mph N/A   Overcast
7:15 AM 78.1 °F - 74.5 °F 89% 29.95 in 7.0 mi SSE 15.0 mph 20.7 mph N/A   Overcast
7:35 AM 78.6 °F - 74.7 °F 88% 29.96 in 10.0 mi SSE 12.7 mph 19.6 mph N/A   Overcast
7:55 AM 78.6 °F - 74.8 °F 88% 29.96 in 7.0 mi SE 10.4 mph 18.4 mph N/A   Overcast
8:15 AM 78.8 °F - 74.8 °F 88% 29.97 in 7.0 mi SE 10.4 mph - N/A   Overcast
8:35 AM 78.8 °F - 74.8 °F 88% 29.98 in 10.0 mi SE 13.8 mph 17.3 mph N/A   Overcast
8:55 AM 79.0 °F - 75.2 °F 88% 29.98 in 7.0 mi SSE 11.5 mph 17.3 mph N/A   Overcast
9:15 AM 79.9 °F - 75.2 °F 86% 29.98 in 10.0 mi SE 12.7 mph 19.6 mph N/A   Overcast
9:35 AM 81.3 °F 87.0 °F 74.3 °F 79% 29.99 in 10.0 mi SE 11.5 mph 24.2 mph N/A   Overcast
9:55 AM 81.1 °F 86.6 °F 74.1 °F 79% 29.99 in 10.0 mi SE 13.8 mph 21.9 mph N/A   Overcast
10:15 AM 81.1 °F 86.6 °F 73.9 °F 79% 29.99 in 10.0 mi SE 12.7 mph 20.7 mph N/A   Overcast
10:35 AM 81.1 °F 86.4 °F 73.6 °F 78% 30.00 in 10.0 mi SE 15.0 mph 19.6 mph N/A   Overcast
10:55 AM 81.1 °F 86.2 °F 73.4 °F 77% 30.00 in 10.0 mi SE 17.3 mph 20.7 mph N/A   Overcast
11:15 AM 81.5 °F 86.9 °F 73.8 °F 77% 30.00 in 10.0 mi SE 16.1 mph 21.9 mph N/A   Overcast
11:35 AM 81.9 °F 87.5 °F 73.8 °F 76% 30.00 in 10.0 mi SE 19.6 mph 25.3 mph N/A   Overcast
11:55 AM 81.7 °F 87.3 °F 73.8 °F 77% 30.00 in 10.0 mi SE 17.3 mph 25.3 mph N/A   Overcast
12:15 PM 81.1 °F 86.4 °F 73.8 °F 78% 30.00 in 10.0 mi SE 20.7 mph 28.8 mph N/A   Overcast
12:35 PM 82.6 °F 89.1 °F 74.3 °F 76% 30.00 in 10.0 mi SE 20.7 mph 27.6 mph N/A   Overcast
12:55 PM 82.4 °F 88.4 °F 73.9 °F 75% 30.00 in 10.0 mi SSE 21.9 mph 28.8 mph N/A   Overcast
1:15 PM 82.2 °F 88.0 °F 73.6 °F 75% 30.00 in 10.0 mi SE 21.9 mph 28.8 mph N/A   Overcast
1:35 PM 83.3 °F 90.2 °F 74.1 °F 74% 29.99 in 10.0 mi SE 19.6 mph 27.6 mph N/A   Overcast
1:55 PM 84.0 °F 91.2 °F 74.1 °F 72% 29.98 in 10.0 mi SE 24.2 mph 29.9 mph N/A   Overcast
2:35 PM 83.5 °F 90.3 °F 73.9 °F 73% 29.97 in 10.0 mi SE 21.9 mph 29.9 mph N/A   Overcast
2:55 PM 82.9 °F 89.4 °F 73.9 °F 74% 29.97 in 10.0 mi SE 25.3 mph 32.2 mph N/A   Overcast
3:15 PM 81.7 °F 87.3 °F 73.9 °F 77% 29.97 in 7.0 mi SE 21.9 mph 32.2 mph N/A   Overcast
3:35 PM 80.6 °F 85.7 °F 74.1 °F 81% 29.96 in 7.0 mi SE 18.4 mph 27.6 mph N/A   Overcast
3:55 PM 81.7 °F 87.6 °F 74.3 °F 78% 29.95 in 7.0 mi SE 20.7 mph 28.8 mph N/A   Overcast
4:15 PM 81.5 °F 86.9 °F 73.8 °F 77% 29.94 in 10.0 mi SE 23.0 mph 31.1 mph N/A   Overcast
4:35 PM 82.0 °F 87.4 °F 73.0 °F 74% 29.94 in 10.0 mi SE 23.0 mph 33.4 mph N/A   Overcast
4:55 PM 82.2 °F 87.6 °F 72.9 °F 73% 29.94 in 10.0 mi SSE 21.9 mph 29.9 mph N/A   Overcast
5:15 PM 81.9 °F 87.3 °F 73.2 °F 75% 29.94 in 10.0 mi SE 21.9 mph 31.1 mph N/A   Overcast
5:35 PM 81.7 °F 86.9 °F 73.2 °F 75% 29.92 in 10.0 mi SE 18.4 mph 28.8 mph N/A Thunderstorm Mostly Cloudy
5:55 PM 80.6 °F 85.2 °F 73.0 °F 78% 29.92 in 7.0 mi SE 20.7 mph 28.8 mph N/A   Mostly Cloudy
6:15 PM 81.5 °F 86.5 °F 73.0 °F 75% 29.93 in 7.0 mi SE 24.2 mph 31.1 mph N/A   Mostly Cloudy
6:35 PM 80.6 °F 85.2 °F 73.0 °F 78% 29.92 in 10.0 mi SE 17.3 mph 29.9 mph N/A   Mostly Cloudy
6:55 PM 79.9 °F - 72.7 °F 79% 29.93 in 10.0 mi SE 18.4 mph 25.3 mph N/A   Overcast
7:15 PM 79.7 °F - 72.7 °F 79% 29.93 in 10.0 mi SE 16.1 mph 26.5 mph N/A   Overcast
7:35 PM 79.7 °F - 72.7 °F 79% 29.94 in 10.0 mi SE 15.0 mph 23.0 mph N/A Thunderstorm Overcast
7:55 PM 79.2 °F - 72.9 °F 81% 29.94 in 10.0 mi SE 11.5 mph 21.9 mph N/A   Overcast
8:15 PM 79.2 °F - 73.2 °F 82% 29.94 in 10.0 mi SE 12.7 mph 19.6 mph N/A   Overcast
8:35 PM 78.8 °F - 73.4 °F 83% 29.94 in 10.0 mi SE 12.7 mph 20.7 mph N/A Thunderstorm Overcast
8:55 PM 78.8 °F - 73.4 °F 83% 29.94 in 10.0 mi SE 13.8 mph 19.6 mph N/A   Overcast
9:15 PM 78.8 °F - 73.6 °F 84% 29.94 in 7.0 mi SE 12.7 mph 21.9 mph N/A   Overcast
9:35 PM 78.6 °F - 73.8 °F 85% 29.94 in 7.0 mi SE 11.5 mph 18.4 mph N/A   Overcast
9:55 PM 78.4 °F - 74.1 °F 87% 29.95 in 7.0 mi SE 12.7 mph - N/A   Overcast
10:15 PM 78.3 °F - 73.9 °F 87% 29.96 in 7.0 mi ESE 10.4 mph 19.6 mph N/A   Overcast
10:35 PM 77.9 °F - 73.4 °F 86% 29.97 in 7.0 mi SE 11.5 mph 16.1 mph N/A   Overcast
10:55 PM 77.9 °F - 73.4 °F 86% 29.98 in 10.0 mi SE 9.2 mph - N/A   Overcast
11:15 PM 77.9 °F - 73.4 °F 86% 29.97 in 7.0 mi SE 10.4 mph - N/A   Overcast
11:35 PM 77.9 °F - 73.0 °F 85% 29.97 in 10.0 mi SE 13.8 mph 18.4 mph N/A   Overcast
11:55 PM 77.9 °F - 73.0 °F 85% 29.97 in 10.0 mi SE 16.1 mph 20.7 mph N/A   Overcast